Weather past 2 weeks in Cayenne, French Guiana

Now
88 °F

Passing clouds.


Feels Like: 93 °F
Forecast: 78 / 85 °F
Wind: 12 mph from East

Location: Cayenne / Rochambeau

Current Time: Jul 23, 2014 at 1:18:07 PM

Latest Report: Jul 23, 2014 at 1:00 PM


Visibility: N/A

Pressure: 29.98 "Hg

Humidity: 55%

Dew point: 70 °F

Location of CayenneLocation

Historic Weather in Cayenne — Graph

°F

Cayenne temperature yesterday

Maximum temperature yesterday: 90 °F (at 1:00 PM)
Minimum temperature yesterday: 72 °F (at 4:00 AM)
Average temperature yesterday: 78 °F

Past Weeks' High & Low Weather Summary

 TemperatureHumidityPressure
High90 °F (Jul 9, 1:00 PM)100% (Jul 10, 1:30 AM)30.04 "Hg (Jul 10, 1:30 AM)
Low72 °F (Jul 15, 6:30 AM)49% (Jul 14, 1:30 PM)29.86 "Hg (Jul 9, 2:30 PM)
Average80 °F81%29.96 "Hg
* Reported Jul 8 12:00 Noon — Jul 23 12:00 Noon, Cayenne, Weather by CustomWeather, © 2014

Note: Actual official high and low records may vary slightly from our data, if they occured in-between our weather recording intervals... More about our weather records

Advertising

Cayenne weather history for previous 24 hours

 ConditionsComfort  
Time TempWeatherWind HumidityBarometerVisibility
12:00 PM
Jul 23
86 °FBroken clouds.10 mph62%29.98 "HgN/A
11:30 AM88 °FPassing clouds.13 mph62%30.01 "HgN/A
11:00 AM86 °FPartly sunny.13 mph66%30.01 "HgN/A
10:00 AM84 °FPartly sunny.8 mph70%30.01 "HgN/A
9:30 AM84 °FPartly sunny.5 mph70%29.98 "HgN/A
9:00 AM82 °FBroken clouds.3 mph79%29.98 "HgN/A
8:30 AM79 °FPassing clouds.No wind89%29.98 "HgN/A
8:00 AM77 °FClear.No wind89%29.98 "HgN/A
7:30 AM73 °FPassing clouds.1 mph94%29.98 "HgN/A
7:00 AM72 °FClear.No wind100%29.95 "HgN/A
6:30 AM72 °FPassing clouds.No wind94%29.95 "HgN/A
6:00 AM72 °FClear.No wind94%29.95 "HgN/A
2:00 AM75 °FPassing clouds.No wind89%29.95 "HgN/A
1:30 AM75 °FPartly cloudy.No wind89%29.98 "HgN/A
1:00 AM75 °FMild.No wind89%29.98 "HgN/A
12:30 AM75 °FPassing clouds.2 mph89%29.98 "HgN/A
12:00 AM77 °FClear.3 mph83%29.98 "HgN/A
11:30 PM
Jul 22
77 °FClear.3 mph89%29.98 "HgN/A
11:00 PM79 °FClear.3 mph84%30.01 "HgN/A
10:30 PM79 °FClear.3 mph84%29.98 "HgN/A
10:00 PM79 °FClear.3 mph84%29.98 "HgN/A
9:30 PM81 °FClear.3 mph79%29.98 "HgN/A
9:00 PM81 °FClear.6 mph79%29.98 "HgN/A
2:00 PM90 °FBroken clouds.14 mph55%29.95 "HgN/A
1:30 PM88 °FScattered clouds.17 mph59%29.95 "HgN/A
1:00 PM90 °FScattered clouds.12 mph59%29.95 "HgN/A
Weather by CustomWeather, © 2014

See weather overviewHow to use our weather pages